STARLINK-4597, 53640

Orbit data source: Space-Track

STARLINK-4597, 53640 is a payload satellite owned by SpaceX/Seattle (US) in LEO that was launched on Sun, 28 Aug 2022 UTC via an FALCON 9 launch vehicle from the Air Force Eastern Test Range (AFETR). Payload-class satellites include a variety of spacecraft equipped with specific instruments for various scientific and technological missions. These include communications satellites like Starlink; space stations such as the ISS; scientific satellites like the Hubble; Earth observation satellites from companies like Planet Labs, Umbra, and HawkEye 360; GPS; miniature CubeSats for education and research; and military/defense satellites.

Loading next visibility...
Identifier
53640, 2022-104BE
Orbit
LEO
Country
Flag of USUS
Related business
Manufacturer
SpaceX/Seattle
Mission
Operational Commercial Communications
Bus & Motor
STARLINK, Unknown motor
Mass
300 kg wet, ~290 kg dry
Launch date (UTC)
2022-08-28 (4 years ago)
Launch vehicle
FALCON 9
Launch site
Air Force Eastern Test Range (AFETR)
Object type
Payload
Rocket body
Debris
Shape & HBR
Box + 1 Pan, 10.1 m
Radar Cross Section
13.562 m², Large (>1 m²)

Expand to show TLE details & history
Last TLE update: 3 days ago

TLE from 3 days ago
0 STARLINK-4597
1 53640U 22104BE  26170.26758836  .00000000  00000-0  18105-4 0  9997
2 53640  53.1616 127.7615 0001451  83.6845 276.4312 15.08836752211561
Epoch: 2026-06-19T06:25Z
TLE epoch observation values (Epoch: 2026-06-19T06:25:19.634Z)
Latitude
0.00001°
Longitude
123.93069°
Altitude
540.533 km
Speed
7.593 km/s
True Right ascension
08h 31m 02s
True Declination
0° 00' 00"
Sunlit
Object was in daylight at epoch
Visualization orbit readout
Latitude
Unknown
Longitude
Unknown
Altitude
Unknown
Speed
Unknown
Apparent Right ascension
Unknown
Apparent Declination
Unknown
Sunlit
N/A
Visualization observer readout
Local Sidereal Time
21:37:20
Azimuth
Unknown
Elevation
Unknown
Doppler factor
Unknown
Orbital elements
Apogee altitude
541.011 km
Perigee altitude
539.003 km
Semi-major axis
6,918.144 km
Eccentricity
0.00015
Inclination
53.1616°
RAAN
127.7615°
Arg. of periapsis
83.6845°
True anomaly
276.41468°
Mean anomaly
276.4312°
Eccentric anomaly
276.42294°
Mean motion
3.77189 °/min
Orbital period
95.44 mins
BSTAR
0.000018105
Loading maneuver chart data...
Computing Atmospheric mass density...
Loading historical data...
Loading historical data...
Loading historical data...
Loading historical data...
Loading historical data...
Loading historical data...
Loading historical data...

Documentation

Showing up to 5 results
|